SXN03V EGSH-LICC

Flight info

Callsign SXN03V
Flight time 2h 38m
Altitude 23000
Route UMBAG P5 DIGSU UM185 BPK L10 LAM/N0496F400 L980 MID/N0496F410 UL612 RESMI UN857 DISAK DCT NARAK DCT PUMAL N859 GENIO/N0489F430 M134 LUXUR/N0490F450 UM134 ANB UG6 DIMAO UL874 OMENI/N0513F290 L30 GZO/N0510F300 N982 DIRKA DCT NELDA
Aircraft C750/M-SBDE3FGHRWXY/S

Departure

Time 2026-05-04 10:04
Airport Norwich Airport (EGSH)

Arrival

Time 2026-05-04 12:42
Airport Catania-Fontanarossa Airport (LICC)
Time Latitude Longitude Altitude Speed Heading
2026-05-04 09:52 52.67152 1.27235 118 ft 0 kts 185°
2026-05-04 10:00 52.67214 1.27337 118 ft 9 kts 349°
2026-05-04 10:00 52.67304 1.27303 118 ft 14 kts 346°
2026-05-04 10:02 52.67581 1.26942 120 ft 2 kts 33°
2026-05-04 10:04 52.65648 1.34829 1584 ft 220 kts 165°
2026-05-04 10:04 52.64114 1.34579 2172 ft 224 kts 202°
2026-05-04 10:04 52.62917 1.33008 2886 ft 223 kts 229°
2026-05-04 10:04 52.61879 1.30947 3315 ft 246 kts 232°
2026-05-04 10:05 52.60745 1.28680 3805 ft 264 kts 231°
2026-05-04 10:05 52.59576 1.26402 4869 ft 258 kts 231°
2026-05-04 10:05 52.58423 1.24158 5777 ft 260 kts 231°
2026-05-04 10:05 52.57254 1.21861 6613 ft 262 kts 231°
2026-05-04 10:06 52.56082 1.19565 7484 ft 265 kts 231°
2026-05-04 10:06 52.54884 1.17226 8371 ft 268 kts 230°
2026-05-04 10:06 52.53677 1.14870 9280 ft 271 kts 230°
2026-05-04 10:08 52.45282 0.98532 11941 ft 342 kts 230°
2026-05-04 10:08 52.43741 0.95546 12542 ft 345 kts 230°
2026-05-04 10:08 52.42210 0.92582 13140 ft 348 kts 230°
2026-05-04 10:08 52.40627 0.89522 13737 ft 352 kts 230°
2026-05-04 10:09 52.39036 0.86448 14281 ft 355 kts 230°
2026-05-04 10:09 52.37434 0.83357 14817 ft 358 kts 230°
2026-05-04 10:09 52.35789 0.80281 15313 ft 361 kts 226°
2026-05-04 10:09 52.33681 0.77935 15787 ft 365 kts 206°
2026-05-04 10:10 52.31305 0.76613 16365 ft 367 kts 197°
2026-05-04 10:10 52.28825 0.75508 16929 ft 371 kts 196°
2026-05-04 10:10 52.26329 0.74402 17511 ft 373 kts 196°
2026-05-04 10:10 52.23822 0.73240 18096 ft 376 kts 197°
2026-05-04 10:11 52.21293 0.72062 18644 ft 379 kts 196°
2026-05-04 10:11 52.18710 0.70889 19206 ft 382 kts 197°
2026-05-04 10:11 52.16176 0.69745 19752 ft 384 kts 197°
2026-05-04 10:11 52.13596 0.68565 20312 ft 387 kts 197°
2026-05-04 10:12 52.10998 0.67377 20874 ft 389 kts 198°
2026-05-04 10:12 52.08382 0.66188 21412 ft 392 kts 198°
2026-05-04 10:12 52.05791 0.64807 21887 ft 393 kts 206°
2026-05-04 10:12 52.03428 0.62602 22446 ft 392 kts 217°
2026-05-04 10:13 52.01393 0.59716 22972 ft 367 kts 228°
2026-05-04 10:13 51.99884 0.56587 23012 ft 339 kts 238°
2026-05-04 10:13 51.98713 0.53376 23015 ft 327 kts 240°
2026-05-04 10:13 51.97531 0.50184 23018 ft 331 kts 238°
2026-05-04 10:14 51.95909 0.47538 23027 ft 332 kts 219°
2026-05-04 10:14 51.93990 0.45494 23049 ft 335 kts 214°
2026-05-04 10:16 51.80235 0.31266 23045 ft 337 kts 213°
2026-05-04 10:16 51.78242 0.29205 23044 ft 340 kts 213°
2026-05-04 10:16 51.76251 0.27152 23042 ft 339 kts 213°
2026-05-04 10:16 51.74263 0.25102 23039 ft 339 kts 213°
2026-05-04 10:17 51.72276 0.23054 23036 ft 339 kts 213°
2026-05-04 10:17 51.70288 0.21008 23034 ft 339 kts 213°
2026-05-04 10:19 51.56822 0.07452 22993 ft 344 kts 186°
2026-05-04 10:19 51.54383 0.07617 23020 ft 360 kts 176°
2026-05-04 10:19 51.52708 0.07890 23062 ft 371 kts 176°
2026-05-04 10:19 51.50086 0.08312 23122 ft 387 kts 176°
2026-05-04 10:20 51.47355 0.08694 23172 ft 402 kts 177°
2026-05-04 10:20 51.44545 0.09076 23611 ft 406 kts 176°
2026-05-04 10:20 51.41730 0.09486 24098 ft 407 kts 176°
2026-05-04 10:20 51.38907 0.09904 24616 ft 408 kts 176°
2026-05-04 10:21 51.36073 0.10308 25117 ft 409 kts 177°
2026-05-04 10:21 51.33238 0.10707 25615 ft 409 kts 176°
2026-05-04 10:21 51.30407 0.11114 26153 ft 408 kts 176°
2026-05-04 10:21 51.27576 0.11522 26662 ft 409 kts 177°
2026-05-04 10:22 51.21893 0.12329 27687 ft 411 kts 177°
2026-05-04 10:22 51.19044 0.12735 28200 ft 412 kts 177°
2026-05-04 10:22 51.16184 0.13142 28706 ft 413 kts 177°
2026-05-04 10:23 51.13848 0.13474 29111 ft 414 kts 177°
2026-05-04 10:23 51.10973 0.13882 29610 ft 415 kts 178°
2026-05-04 10:25 50.90442 0.16779 32335 ft 429 kts 177°
2026-05-04 10:25 50.87513 0.17189 32738 ft 430 kts 177°
2026-05-04 10:25 50.84536 0.17607 33289 ft 429 kts 177°
2026-05-04 10:25 50.81560 0.18026 33727 ft 430 kts 177°
2026-05-04 10:26 50.78576 0.18443 34127 ft 431 kts 177°
2026-05-04 10:26 50.75583 0.18859 34480 ft 433 kts 176°
2026-05-04 10:26 50.72579 0.19279 34833 ft 434 kts 176°
2026-05-04 10:26 50.69561 0.19700 35186 ft 436 kts 176°
2026-05-04 10:27 50.66537 0.20120 35546 ft 437 kts 176°
2026-05-04 10:27 50.63504 0.20542 35920 ft 438 kts 176°
2026-05-04 10:27 50.60468 0.20964 36344 ft 438 kts 176°
2026-05-04 10:27 50.57429 0.21385 36685 ft 440 kts 176°
2026-05-04 10:28 50.54371 0.21807 37042 ft 442 kts 176°
2026-05-04 10:28 50.51305 0.22232 37396 ft 443 kts 176°
2026-05-04 10:28 50.48228 0.22657 37765 ft 445 kts 176°
2026-05-04 10:28 50.45144 0.23082 38129 ft 446 kts 176°
2026-05-04 10:29 50.42044 0.23508 38494 ft 448 kts 176°
2026-05-04 10:29 50.38938 0.23936 38852 ft 448 kts 176°
2026-05-04 10:29 50.35829 0.24363 39184 ft 449 kts 176°
2026-05-04 10:29 50.32716 0.24790 39523 ft 449 kts 176°
2026-05-04 10:30 50.29605 0.25216 39859 ft 449 kts 176°
2026-05-04 10:30 50.26534 0.25636 40198 ft 449 kts 176°
2026-05-04 10:30 50.23423 0.26156 40508 ft 451 kts 172°
2026-05-04 10:30 50.20379 0.27371 40829 ft 453 kts 162°
2026-05-04 10:31 50.17494 0.29385 41188 ft 456 kts 153°
2026-05-04 10:31 50.14824 0.32052 41539 ft 457 kts 147°
2026-05-04 10:32 49.98919 0.48579 43008 ft 468 kts 148°
2026-05-04 10:33 49.93375 0.54151 43012 ft 481 kts 149°
2026-05-04 10:33 49.87708 0.59945 43011 ft 494 kts 149°
2026-05-04 10:34 49.82140 0.66376 43014 ft 505 kts 142°
2026-05-04 10:34 49.76684 0.73366 42998 ft 513 kts 143°
2026-05-04 10:35 49.71113 0.80275 42994 ft 513 kts 143°
2026-05-04 10:35 49.65578 0.87253 42992 ft 514 kts 143°
2026-05-04 10:36 49.59996 0.94181 42984 ft 516 kts 143°
2026-05-04 10:36 49.54419 1.01137 42986 ft 516 kts 143°
2026-05-04 10:37 49.48835 1.08049 42995 ft 515 kts 143°
2026-05-04 10:37 49.43289 1.14910 42988 ft 515 kts 143°
2026-05-04 10:39 49.23660 1.39011 42986 ft 517 kts 143°
2026-05-04 10:40 49.18080 1.45821 42981 ft 517 kts 143°
2026-05-04 10:40 49.12459 1.52655 42980 ft 516 kts 143°
2026-05-04 10:41 49.06829 1.59483 42989 ft 516 kts 143°
2026-05-04 10:41 49.01220 1.66264 42988 ft 515 kts 143°
2026-05-04 10:42 48.95603 1.73033 42982 ft 515 kts 143°
2026-05-04 10:42 48.89999 1.79769 42970 ft 514 kts 143°
2026-05-04 10:43 48.84374 1.86509 42973 ft 514 kts 143°
2026-05-04 10:45 48.61700 2.12831 42984 ft 510 kts 154°
2026-05-04 10:45 48.55084 2.16431 42965 ft 505 kts 171°
2026-05-04 10:46 48.48121 2.16865 42969 ft 500 kts 188°
2026-05-04 10:46 48.41394 2.14584 42968 ft 500 kts 197°
2026-05-04 10:47 48.34669 2.11815 42980 ft 499 kts 193°
2026-05-04 10:47 48.27846 2.10412 42955 ft 500 kts 182°
2026-05-04 10:49 48.00134 2.11738 42997 ft 500 kts 185°
2026-05-04 10:50 47.93209 2.11039 43002 ft 498 kts 186°
2026-05-04 10:51 47.69022 2.10039 42935 ft 502 kts 168°
2026-05-04 10:52 47.65693 2.11635 42954 ft 506 kts 160°
2026-05-04 10:52 47.59309 2.15899 42968 ft 506 kts 158°
2026-05-04 10:54 47.33427 2.32208 42962 ft 506 kts 159°
2026-05-04 10:56 47.07494 2.48445 42963 ft 505 kts 159°
2026-05-04 10:57 47.01015 2.52479 42963 ft 506 kts 159°
2026-05-04 10:57 46.94535 2.56496 42962 ft 506 kts 159°
2026-05-04 10:58 46.88037 2.60518 42970 ft 507 kts 159°
2026-05-04 10:58 46.81538 2.64528 42974 ft 507 kts 160°
2026-05-04 10:59 46.75035 2.68531 42981 ft 507 kts 160°
2026-05-04 10:59 46.68529 2.72525 42969 ft 506 kts 160°
2026-05-04 11:00 46.62026 2.76506 42974 ft 507 kts 160°
2026-05-04 11:02 46.36049 2.92308 42979 ft 507 kts 160°
2026-05-04 11:05 45.87208 3.21581 42986 ft 506 kts 160°
2026-05-04 11:06 45.81789 3.24793 42990 ft 508 kts 160°
2026-05-04 11:06 45.75263 3.28656 42994 ft 508 kts 160°
2026-05-04 11:10 45.31871 3.61271 43001 ft 521 kts 135°
2026-05-04 11:12 45.11759 3.90778 43008 ft 521 kts 137°
2026-05-04 11:12 45.06730 3.98163 43018 ft 521 kts 137°
2026-05-04 11:13 45.01673 4.05507 43019 ft 521 kts 137°
2026-05-04 11:13 44.96636 4.12858 43036 ft 521 kts 137°
2026-05-04 11:14 44.91610 4.20128 43018 ft 521 kts 137°
2026-05-04 11:16 44.71377 4.49284 43057 ft 521 kts 138°
2026-05-04 11:16 44.66300 4.56553 43068 ft 521 kts 138°
2026-05-04 11:17 44.61223 4.63800 43049 ft 521 kts 138°
2026-05-04 11:19 44.40832 4.92715 43036 ft 522 kts 138°
2026-05-04 11:19 44.35716 4.99919 43034 ft 523 kts 138°
2026-05-04 11:20 44.30596 5.07115 43022 ft 522 kts 139°
2026-05-04 11:20 44.25468 5.14299 43039 ft 522 kts 139°
2026-05-04 11:22 44.04941 5.42874 43038 ft 523 kts 139°
2026-05-04 11:23 43.99787 5.50005 43052 ft 523 kts 139°
2026-05-04 11:25 43.81697 5.74878 43048 ft 524 kts 139°
2026-05-04 11:25 43.76507 5.81975 43059 ft 524 kts 139°
2026-05-04 11:27 43.53111 6.13733 43064 ft 526 kts 139°
2026-05-04 11:28 43.47883 6.20780 43067 ft 525 kts 139°
2026-05-04 11:28 43.42654 6.27810 43071 ft 527 kts 139°
2026-05-04 11:29 43.37444 6.34799 43078 ft 526 kts 139°
2026-05-04 11:29 43.32198 6.41815 43072 ft 526 kts 139°
2026-05-04 11:33 42.95240 6.90750 43061 ft 530 kts 140°
2026-05-04 11:33 42.89931 6.97711 43059 ft 530 kts 140°
2026-05-04 11:34 42.84616 7.04659 43064 ft 529 kts 140°
2026-05-04 11:34 42.79297 7.11597 43053 ft 530 kts 140°
2026-05-04 11:35 42.73964 7.18535 43064 ft 530 kts 140°
2026-05-04 11:35 42.68631 7.25455 43066 ft 530 kts 140°
2026-05-04 11:36 42.63291 7.32369 43070 ft 531 kts 140°
2026-05-04 11:36 42.57929 7.39292 43070 ft 532 kts 140°
2026-05-04 11:37 42.52564 7.46203 43069 ft 532 kts 140°
2026-05-04 11:37 42.47196 7.53099 43071 ft 532 kts 140°
2026-05-04 11:38 42.41862 7.59936 43059 ft 532 kts 140°
2026-05-04 11:38 42.36475 7.66823 43067 ft 533 kts 140°
2026-05-04 11:39 42.31075 7.73710 43056 ft 533 kts 140°
2026-05-04 11:41 42.12149 7.97713 43039 ft 533 kts 140°
2026-05-04 11:41 42.06727 8.04551 43061 ft 534 kts 140°
2026-05-04 11:42 42.01298 8.11382 43058 ft 534 kts 140°
2026-05-04 11:42 41.95867 8.18198 43060 ft 534 kts 140°
2026-05-04 11:43 41.90430 8.25006 43057 ft 534 kts 140°
2026-05-04 11:43 41.84988 8.31801 43055 ft 534 kts 140°
2026-05-04 11:44 41.79545 8.38584 43052 ft 535 kts 140°
2026-05-04 11:44 41.74092 8.45361 43048 ft 535 kts 140°
2026-05-04 11:45 41.68637 8.52124 43053 ft 535 kts 140°
2026-05-04 11:45 41.63176 8.58880 43056 ft 535 kts 140°
2026-05-04 11:46 41.57706 8.65629 43066 ft 535 kts 140°
2026-05-04 11:46 41.52231 8.72368 43063 ft 535 kts 140°
2026-05-04 11:47 41.46791 8.79048 43060 ft 535 kts 140°
2026-05-04 11:47 41.41362 8.85856 43071 ft 537 kts 138°
2026-05-04 11:48 41.36094 8.92924 43077 ft 537 kts 137°
2026-05-04 11:48 41.30817 8.99958 43071 ft 537 kts 138°
2026-05-04 11:49 41.25528 9.06983 43077 ft 537 kts 137°
2026-05-04 11:49 41.20254 9.13996 43070 ft 536 kts 138°
2026-05-04 11:50 41.14954 9.20996 43065 ft 538 kts 137°
2026-05-04 11:50 41.09661 9.27999 43067 ft 537 kts 138°
2026-05-04 11:51 41.04352 9.34983 43073 ft 538 kts 138°
2026-05-04 11:51 40.99049 9.41960 43076 ft 538 kts 138°
2026-05-04 11:52 40.93726 9.48932 43076 ft 538 kts 138°
2026-05-04 11:52 40.88402 9.55900 43077 ft 539 kts 138°
2026-05-04 11:53 40.83104 9.62809 43077 ft 538 kts 138°
2026-05-04 11:53 40.77773 9.69750 43091 ft 538 kts 138°
2026-05-04 11:55 40.57279 9.96273 43089 ft 538 kts 138°
2026-05-04 11:56 40.51933 10.03152 43096 ft 538 kts 138°
2026-05-04 11:56 40.46587 10.10015 43089 ft 538 kts 138°
2026-05-04 11:57 40.41226 10.16881 43110 ft 538 kts 138°
2026-05-04 11:57 40.35861 10.23736 43113 ft 539 kts 138°
2026-05-04 11:58 40.30492 10.30581 43118 ft 539 kts 138°
2026-05-04 11:58 40.25118 10.37416 43118 ft 538 kts 138°
2026-05-04 11:59 40.19772 10.44199 43118 ft 538 kts 138°
2026-05-04 11:59 40.14393 10.51009 43116 ft 538 kts 139°
2026-05-04 12:00 40.09008 10.57810 43121 ft 538 kts 139°
2026-05-04 12:00 40.03600 10.64623 43117 ft 540 kts 139°
2026-05-04 12:01 39.98190 10.71424 43125 ft 540 kts 139°
2026-05-04 12:02 39.79190 10.95184 43126 ft 541 kts 139°
2026-05-04 12:03 39.73753 11.01948 43128 ft 541 kts 139°
2026-05-04 12:03 39.68307 11.08707 43123 ft 542 kts 139°
2026-05-04 12:04 39.62851 11.15464 43120 ft 542 kts 139°
2026-05-04 12:04 39.57391 11.22210 43119 ft 542 kts 139°
2026-05-04 12:05 39.51923 11.28950 43116 ft 542 kts 140°
2026-05-04 12:05 39.46447 11.35684 43115 ft 544 kts 139°
2026-05-04 12:06 39.40951 11.42429 43125 ft 545 kts 139°
2026-05-04 12:06 39.35482 11.49125 43128 ft 545 kts 140°
2026-05-04 12:07 39.29940 11.55893 43128 ft 545 kts 140°
2026-05-04 12:07 39.24468 11.62562 43134 ft 545 kts 140°
2026-05-04 12:08 39.18954 11.69267 43135 ft 547 kts 139°
2026-05-04 12:08 39.13408 11.75996 43142 ft 548 kts 139°
2026-05-04 12:09 39.07852 11.82721 43145 ft 548 kts 139°
2026-05-04 12:09 39.02294 11.89433 43145 ft 548 kts 139°
2026-05-04 12:10 38.96734 11.96132 43145 ft 548 kts 139°
2026-05-04 12:10 38.91164 12.02830 43133 ft 549 kts 139°
2026-05-04 12:11 38.85585 12.09522 43144 ft 549 kts 139°
2026-05-04 12:11 38.80000 12.16207 43144 ft 549 kts 139°
2026-05-04 12:12 38.74405 12.22886 43148 ft 551 kts 139°
2026-05-04 12:12 38.68798 12.29569 43144 ft 549 kts 139°
2026-05-04 12:14 38.46335 12.56184 43158 ft 551 kts 139°
2026-05-04 12:15 38.40712 12.62809 43145 ft 549 kts 140°
2026-05-04 12:15 38.35092 12.69415 43145 ft 549 kts 140°
2026-05-04 12:16 38.29469 12.76011 43148 ft 549 kts 140°
2026-05-04 12:16 38.23869 12.82565 43157 ft 552 kts 140°
2026-05-04 12:17 38.18209 12.89176 43161 ft 552 kts 140°
2026-05-04 12:17 38.12555 12.95765 43155 ft 551 kts 140°
2026-05-04 12:18 38.09757 12.99022 43152 ft 539 kts 140°
2026-05-04 12:18 38.07002 13.02226 43151 ft 538 kts 140°
2026-05-04 12:18 38.01579 13.08532 43053 ft 498 kts 140°
2026-05-04 12:19 37.99125 13.11402 42927 ft 462 kts 141°
2026-05-04 12:19 37.96798 13.14071 41559 ft 454 kts 141°
2026-05-04 12:19 37.94360 13.16838 39633 ft 485 kts 141°
2026-05-04 12:19 37.91816 13.19782 38201 ft 501 kts 140°
2026-05-04 12:20 37.89253 13.22782 36923 ft 504 kts 139°
2026-05-04 12:20 37.86648 13.25790 35565 ft 510 kts 140°
2026-05-04 12:20 37.83995 13.28818 34202 ft 516 kts 140°
2026-05-04 12:20 37.81320 13.31886 32696 ft 521 kts 139°
2026-05-04 12:21 37.78648 13.34976 31322 ft 520 kts 139°
2026-05-04 12:21 37.75998 13.38033 29748 ft 495 kts 139°
2026-05-04 12:21 37.73588 13.40804 26629 ft 448 kts 139°
2026-05-04 12:21 37.71134 13.43592 23232 ft 502 kts 140°
2026-05-04 12:22 37.68547 13.46536 20928 ft 466 kts 139°
2026-05-04 12:22 37.66195 13.49248 18652 ft 467 kts 138°
2026-05-04 12:22 37.63815 13.51979 17643 ft 451 kts 138°
2026-05-04 12:22 37.61637 13.54642 17024 ft 424 kts 130°
2026-05-04 12:23 37.60271 13.57806 16379 ft 402 kts 109°
2026-05-04 12:23 37.59551 13.61163 15326 ft 395 kts 102°
2026-05-04 12:23 37.58950 13.64520 14351 ft 388 kts 103°
2026-05-04 12:23 37.58260 13.67777 13383 ft 381 kts 106°
2026-05-04 12:24 37.57520 13.70956 12396 ft 375 kts 106°
2026-05-04 12:24 37.56840 13.74089 11641 ft 364 kts 105°
2026-05-04 12:24 37.56235 13.77063 11492 ft 337 kts 104°
2026-05-04 12:24 37.55655 13.79799 11308 ft 314 kts 105°
2026-05-04 12:25 37.55063 13.82503 10210 ft 326 kts 105°
2026-05-04 12:25 37.54481 13.85179 10027 ft 304 kts 105°
2026-05-04 12:25 37.53944 13.87691 9527 ft 296 kts 105°
2026-05-04 12:25 37.53412 13.90181 8949 ft 291 kts 105°
2026-05-04 12:26 37.52878 13.92638 8328 ft 289 kts 105°
2026-05-04 12:26 37.52349 13.95069 7728 ft 286 kts 105°
2026-05-04 12:26 37.51831 13.97479 7177 ft 283 kts 105°
2026-05-04 12:26 37.51317 13.99860 6639 ft 279 kts 105°
2026-05-04 12:27 37.50810 14.02205 6037 ft 277 kts 105°
2026-05-04 12:27 37.50306 14.04528 5474 ft 273 kts 105°
2026-05-04 12:27 37.49793 14.06881 5019 ft 278 kts 105°
2026-05-04 12:27 37.49298 14.09165 5020 ft 268 kts 105°
2026-05-04 12:28 37.48804 14.11439 5015 ft 270 kts 105°
2026-05-04 12:28 37.48308 14.13717 5021 ft 270 kts 105°
2026-05-04 12:28 37.47812 14.15999 5016 ft 270 kts 105°
2026-05-04 12:28 37.47315 14.18280 5013 ft 271 kts 105°
2026-05-04 12:29 37.46817 14.20558 5013 ft 270 kts 105°
2026-05-04 12:29 37.46317 14.22845 5012 ft 272 kts 106°
2026-05-04 12:29 37.45815 14.25137 5014 ft 272 kts 106°
2026-05-04 12:29 37.45334 14.27345 5007 ft 246 kts 106°
2026-05-04 12:30 37.44902 14.29317 4933 ft 223 kts 106°
2026-05-04 12:30 37.44506 14.31112 4768 ft 212 kts 106°
2026-05-04 12:30 37.44123 14.32855 4776 ft 204 kts 106°
2026-05-04 12:30 37.43745 14.34576 4804 ft 208 kts 106°
2026-05-04 12:31 37.43359 14.36331 4769 ft 209 kts 106°
2026-05-04 12:31 37.42973 14.38079 4773 ft 206 kts 106°
2026-05-04 12:31 37.42591 14.39819 4786 ft 207 kts 106°
2026-05-04 12:31 37.42208 14.41566 4780 ft 210 kts 106°
2026-05-04 12:32 37.41823 14.43304 4814 ft 206 kts 107°
2026-05-04 12:32 37.41470 14.46854 4811 ft 208 kts 83°
2026-05-04 12:32 37.41657 14.48654 4802 ft 208 kts 83°
2026-05-04 12:33 37.41819 14.50464 4788 ft 208 kts 84°
2026-05-04 12:33 37.41973 14.52275 4790 ft 209 kts 84°
2026-05-04 12:33 37.42123 14.54082 4792 ft 208 kts 85°
2026-05-04 12:33 37.42268 14.55881 4803 ft 206 kts 85°
2026-05-04 12:34 37.42410 14.57692 4784 ft 208 kts 85°
2026-05-04 12:34 37.42547 14.59500 4787 ft 209 kts 85°
2026-05-04 12:34 37.42682 14.61311 4787 ft 209 kts 85°
2026-05-04 12:34 37.42811 14.63121 4779 ft 206 kts 85°
2026-05-04 12:35 37.42934 14.64934 4784 ft 209 kts 86°
2026-05-04 12:35 37.43052 14.66756 4785 ft 209 kts 86°
2026-05-04 12:35 37.43162 14.68567 4778 ft 207 kts 86°
2026-05-04 12:35 37.43267 14.70379 4781 ft 207 kts 86°
2026-05-04 12:36 37.43365 14.72186 4780 ft 208 kts 86°
2026-05-04 12:36 37.43459 14.73996 4776 ft 207 kts 87°
2026-05-04 12:36 37.43546 14.75792 4772 ft 200 kts 87°
2026-05-04 12:36 37.43626 14.77510 4768 ft 194 kts 87°
2026-05-04 12:37 37.43732 14.79199 4747 ft 196 kts 79°
2026-05-04 12:37 37.44280 14.80759 4688 ft 191 kts 65°
2026-05-04 12:37 37.44639 14.82391 4155 ft 199 kts 83°
2026-05-04 12:37 37.44778 14.84100 3876 ft 197 kts 86°
2026-05-04 12:38 37.44920 14.85799 3545 ft 195 kts 85°
2026-05-04 12:38 37.45064 14.87531 3069 ft 204 kts 85°
2026-05-04 12:38 37.45208 14.89225 2905 ft 183 kts 85°
2026-05-04 12:38 37.45325 14.90797 2750 ft 169 kts 87°
2026-05-04 12:39 37.45388 14.91728 2475 ft 157 kts 87°
2026-05-04 12:39 37.45500 14.93084 2074 ft 155 kts 87°
2026-05-04 12:39 37.45632 14.94374 1854 ft 146 kts 82°
2026-05-04 12:39 37.45768 14.95640 1618 ft 145 kts 86°
2026-05-04 12:40 37.45852 14.96875 1388 ft 140 kts 89°
2026-05-04 12:40 37.45906 14.98090 1208 ft 138 kts 90°
2026-05-04 12:40 37.45948 14.99283 1123 ft 136 kts 90°
2026-05-04 12:40 37.46023 15.00469 1018 ft 137 kts 82°
2026-05-04 12:41 37.46244 15.01669 732 ft 141 kts 84°
2026-05-04 12:41 37.46365 15.02872 516 ft 136 kts 84°
2026-05-04 12:41 37.46473 15.04023 328 ft 129 kts 89°
2026-05-04 12:41 37.46563 15.05147 156 ft 128 kts 88°
2026-05-04 12:42 37.46644 15.06222 34 ft 112 kts 87°
2026-05-04 12:42 37.46703 15.06945 33 ft 33 kts 83°
2026-05-04 12:42 37.46735 15.06986 32 ft 9 kts 277°
2026-05-04 12:42 37.46765 15.06922 31 ft 8 kts 332°
2026-05-04 12:43 37.46815 15.06893 29 ft 0 kts 336°
2026-05-04 12:43 37.46817 15.06892 29 ft 1 kts 335°
2026-05-04 12:43 37.46829 15.06885 29 ft 3 kts 333°
2026-05-04 12:43 37.46852 15.06851 28 ft 7 kts 294°
2026-05-04 12:44 37.46862 15.06769 28 ft 7 kts 324°
2026-05-04 12:44 37.46899 15.06766 28 ft 5 kts 353°
2026-05-04 12:44 37.46922 15.06763 28 ft 0 kts 354°